Time,TemperatureF,DewpointF,PressureIn,WindDirection,WindDirectionDegrees,WindSpeedMPH,WindSpeedGustMPH,Humidity,HourlyPrecipIn,Conditions,Clouds,dailyrainin,SoftwareType,DateUTC
2013-02-03 00:00:00,46.0,44.9,30.34,NW,309,2.0,2.0,96,0.00,,,0.00,Wunderground v.1.15,2013-02-03 08:00:00,
2013-02-03 00:05:00,45.7,44.4,30.33,WNW,302,2.0,4.0,95,0.00,,,0.00,Wunderground v.1.15,2013-02-03 08:05:00,
2013-02-03 00:11:00,45.4,44.1,30.33,WNW,302,2.0,3.0,95,0.00,,,0.00,Wunderground v.1.15,2013-02-03 08:11:00,
2013-02-03 00:16:00,45.6,44.3,30.32,WNW,302,2.0,4.0,95,0.00,,,0.00,Wunderground v.1.15,2013-02-03 08:16:00,
2013-02-03 00:21:00,45.7,44.1,30.33,WNW,302,1.0,2.0,94,0.00,,,0.00,Wunderground v.1.15,2013-02-03 08:21:00,
2013-02-03 00:27:00,45.8,44.2,30.32,WNW,302,1.0,2.0,94,0.00,,,0.00,Wunderground v.1.15,2013-02-03 08:27:00,
2013-02-03 00:33:00,45.8,44.2,30.32,WNW,302,1.0,3.0,94,0.00,,,0.00,Wunderground v.1.15,2013-02-03 08:33:00,
2013-02-03 00:39:00,45.8,43.9,30.32,WNW,297,2.0,3.0,93,0.00,,,0.00,Wunderground v.1.15,2013-02-03 08:39:00,
2013-02-03 00:44:00,45.9,44.0,30.31,West,264,2.0,2.0,93,0.00,,,0.00,Wunderground v.1.15,2013-02-03 08:44:00,
2013-02-03 00:50:00,45.8,43.9,30.32,SW,236,2.0,2.0,93,0.00,,,0.00,Wunderground v.1.15,2013-02-03 08:50:00,
2013-02-03 00:55:00,45.8,43.9,30.32,SW,236,1.0,2.0,93,0.00,,,0.00,Wunderground v.1.15,2013-02-03 08:55:00,
2013-02-03 01:01:00,45.7,43.8,30.31,SW,236,1.0,7.0,93,0.00,,,0.00,Wunderground v.1.15,2013-02-03 09:01:00,
2013-02-03 01:06:00,45.7,43.8,30.31,SW,216,1.0,7.0,93,0.00,,,0.00,Wunderground v.1.15,2013-02-03 09:06:00,
2013-02-03 01:12:00,45.6,43.7,30.31,SSW,205,2.0,7.0,93,0.00,,,0.00,Wunderground v.1.15,2013-02-03 09:12:00,
2013-02-03 01:17:00,45.6,43.7,30.30,SSW,205,1.0,7.0,93,0.00,,,0.00,Wunderground v.1.15,2013-02-03 09:17:00,
2013-02-03 01:23:00,45.5,43.6,30.30,SSW,205,1.0,7.0,93,0.00,,,0.00,Wunderground v.1.15,2013-02-03 09:23:00,
2013-02-03 01:29:00,45.5,43.6,30.30,SSW,205,1.0,7.0,93,0.00,,,0.00,Wunderground v.1.15,2013-02-03 09:29:00,
2013-02-03 01:34:00,45.4,43.5,30.29,SSW,205,0.0,7.0,93,0.00,,,0.00,Wunderground v.1.15,2013-02-03 09:34:00,
2013-02-03 01:40:00,45.3,43.4,30.30,SSW,205,1.0,1.0,93,0.00,,,0.00,Wunderground v.1.15,2013-02-03 09:40:00,
2013-02-03 01:45:00,45.3,43.7,30.29,SSW,205,0.0,7.0,94,0.00,,,0.00,Wunderground v.1.15,2013-02-03 09:45:00,
2013-02-03 01:50:00,45.2,43.6,30.29,SSW,205,1.0,7.0,94,0.00,,,0.00,Wunderground v.1.15,2013-02-03 09:50:00,
2013-02-03 01:55:00,45.3,43.7,30.29,SSW,205,1.0,7.0,94,0.00,,,0.00,Wunderground v.1.15,2013-02-03 09:55:00,
2013-02-03 02:01:00,45.2,43.6,30.29,SSW,205,1.0,7.0,94,0.00,,,0.00,Wunderground v.1.15,2013-02-03 10:01:00,
2013-02-03 02:06:00,45.2,43.3,30.29,SSW,205,0.0,7.0,93,0.00,,,0.00,Wunderground v.1.15,2013-02-03 10:06:00,
2013-02-03 02:11:00,45.2,43.3,30.29,SSW,205,0.0,7.0,93,0.00,,,0.00,Wunderground v.1.15,2013-02-03 10:11:00,
2013-02-03 02:16:00,45.2,43.3,30.29,SSW,205,0.0,7.0,93,0.00,,,0.00,Wunderground v.1.15,2013-02-03 10:16:00,
2013-02-03 02:22:00,45.1,43.5,30.29,SSW,205,0.0,7.0,94,0.00,,,0.00,Wunderground v.1.15,2013-02-03 10:22:00,
2013-02-03 02:28:00,45.0,43.1,30.29,SSW,205,0.0,7.0,93,0.00,,,0.00,Wunderground v.1.15,2013-02-03 10:28:00,
2013-02-03 02:34:00,45.1,43.2,30.28,SSW,205,0.0,7.0,93,0.00,,,0.00,Wunderground v.1.15,2013-02-03 10:34:00,
2013-02-03 02:40:00,45.1,43.2,30.28,SSW,205,0.0,7.0,93,0.00,,,0.00,Wunderground v.1.15,2013-02-03 10:40:00,
2013-02-03 02:45:00,45.1,43.2,30.28,SSW,205,0.0,7.0,93,0.00,,,0.00,Wunderground v.1.15,2013-02-03 10:45:00,
2013-02-03 02:50:00,45.1,43.2,30.28,SSW,205,0.0,7.0,93,0.00,,,0.00,Wunderground v.1.15,2013-02-03 10:50:00,
2013-02-03 02:55:00,45.1,43.2,30.27,SSW,205,0.0,7.0,93,0.00,,,0.00,Wunderground v.1.15,2013-02-03 10:55:00,
2013-02-03 03:01:00,45.0,43.1,30.27,SSW,205,0.0,7.0,93,0.00,,,0.00,Wunderground v.1.15,2013-02-03 11:01:00,
2013-02-03 03:07:00,45.0,43.1,30.27,SSW,205,0.0,7.0,93,0.00,,,0.00,Wunderground v.1.15,2013-02-03 11:07:00,
2013-02-03 03:12:00,45.0,43.1,30.27,SSW,205,0.0,7.0,93,0.00,,,0.00,Wunderground v.1.15,2013-02-03 11:12:00,
2013-02-03 03:18:00,44.9,43.0,30.27,SSW,205,1.0,7.0,93,0.00,,,0.00,Wunderground v.1.15,2013-02-03 11:18:00,
2013-02-03 03:24:00,44.9,43.0,30.27,SSW,205,0.0,7.0,93,0.00,,,0.00,Wunderground v.1.15,2013-02-03 11:24:00,
2013-02-03 03:30:00,44.9,43.0,30.28,SSW,205,0.0,7.0,93,0.00,,,0.00,Wunderground v.1.15,2013-02-03 11:30:00,
2013-02-03 03:36:00,44.8,42.9,30.28,SSW,205,1.0,7.0,93,0.00,,,0.00,Wunderground v.1.15,2013-02-03 11:36:00,
2013-02-03 03:41:00,44.7,42.8,30.28,SSW,205,1.0,7.0,93,0.00,,,0.00,Wunderground v.1.15,2013-02-03 11:41:00,
2013-02-03 03:46:00,44.7,42.8,30.27,SSW,205,1.0,7.0,93,0.00,,,0.00,Wunderground v.1.15,2013-02-03 11:46:00,
2013-02-03 03:52:00,44.8,42.9,30.28,SSW,205,0.0,7.0,93,0.00,,,0.00,Wunderground v.1.15,2013-02-03 11:52:00,
2013-02-03 03:58:00,44.9,42.7,30.28,SSW,205,0.0,7.0,92,0.00,,,0.00,Wunderground v.1.15,2013-02-03 11:58:00,
2013-02-03 04:03:00,44.9,42.7,30.28,SSW,205,0.0,7.0,92,0.00,,,0.00,Wunderground v.1.15,2013-02-03 12:03:00,
2013-02-03 04:08:00,44.9,42.7,30.28,SSW,205,1.0,7.0,92,0.00,,,0.00,Wunderground v.1.15,2013-02-03 12:08:00,
2013-02-03 04:13:00,44.9,42.4,30.29,SSW,205,1.0,7.0,91,0.00,,,0.00,Wunderground v.1.15,2013-02-03 12:13:00,
2013-02-03 04:19:00,45.2,43.0,30.29,SSW,205,0.0,7.0,92,0.00,,,0.00,Wunderground v.1.15,2013-02-03 12:19:00,
2013-02-03 04:25:00,45.4,42.9,30.29,SSW,205,0.0,7.0,91,0.00,,,0.00,Wunderground v.1.15,2013-02-03 12:25:00,
2013-02-03 04:31:00,45.6,43.1,30.29,SSW,205,0.0,7.0,91,0.00,,,0.00,Wunderground v.1.15,2013-02-03 12:31:00,
2013-02-03 04:37:00,45.6,43.1,30.28,SSW,205,0.0,7.0,91,0.00,,,0.00,Wunderground v.1.15,2013-02-03 12:37:00,
2013-02-03 04:43:00,45.6,43.1,30.29,SSW,205,0.0,7.0,91,0.00,,,0.00,Wunderground v.1.15,2013-02-03 12:43:00,
2013-02-03 04:49:00,45.6,43.1,30.29,SSW,205,0.0,7.0,91,0.00,,,0.00,Wunderground v.1.15,2013-02-03 12:49:00,
2013-02-03 04:54:00,45.6,43.1,30.29,SSW,205,0.0,7.0,91,0.00,,,0.00,Wunderground v.1.15,2013-02-03 12:54:00,
2013-02-03 04:59:00,45.5,42.7,30.29,SSW,205,1.0,7.0,90,0.00,,,0.00,Wunderground v.1.15,2013-02-03 12:59:00,
2013-02-03 05:04:00,45.6,42.5,30.29,SSW,205,1.0,7.0,89,0.00,,,0.00,Wunderground v.1.15,2013-02-03 13:04:00,
2013-02-03 05:09:00,45.6,42.5,30.29,SSW,205,0.0,7.0,89,0.00,,,0.00,Wunderground v.1.15,2013-02-03 13:09:00,
2013-02-03 05:15:00,45.7,42.6,30.29,SSW,205,0.0,7.0,89,0.00,,,0.00,Wunderground v.1.15,2013-02-03 13:15:00,
2013-02-03 05:21:00,45.7,42.6,30.28,SSW,205,0.0,7.0,89,0.00,,,0.00,Wunderground v.1.15,2013-02-03 13:21:00,
2013-02-03 05:26:00,45.6,42.5,30.28,SSW,205,0.0,7.0,89,0.00,,,0.00,Wunderground v.1.15,2013-02-03 13:26:00,
2013-02-03 05:32:00,45.4,42.3,30.28,SSW,205,0.0,7.0,89,0.00,,,0.00,Wunderground v.1.15,2013-02-03 13:32:00,
2013-02-03 05:38:00,45.3,42.2,30.27,SSW,205,0.0,7.0,89,0.00,,,0.00,Wunderground v.1.15,2013-02-03 13:38:00,
2013-02-03 05:44:00,45.3,42.2,30.27,SSW,205,0.0,7.0,89,0.00,,,0.00,Wunderground v.1.15,2013-02-03 13:44:00,
2013-02-03 05:49:00,45.2,42.2,30.27,SSW,205,0.0,7.0,89,0.00,,,0.00,Wunderground v.1.15,2013-02-03 13:49:00,
2013-02-03 05:55:00,45.2,42.2,30.27,SSW,205,0.0,7.0,89,0.00,,,0.00,Wunderground v.1.15,2013-02-03 13:55:00,
2013-02-03 06:00:00,45.1,42.1,30.27,SSW,205,0.0,7.0,89,0.00,,,0.00,Wunderground v.1.15,2013-02-03 14:00:00,
2013-02-03 06:06:00,45.1,42.1,30.28,SSW,205,0.0,7.0,89,0.00,,,0.00,Wunderground v.1.15,2013-02-03 14:06:00,
2013-02-03 06:11:00,45.0,42.0,30.27,SSW,205,0.0,7.0,89,0.00,,,0.00,Wunderground v.1.15,2013-02-03 14:11:00,
2013-02-03 06:17:00,45.0,42.0,30.27,SSW,205,0.0,7.0,89,0.00,,,0.00,Wunderground v.1.15,2013-02-03 14:17:00,
2013-02-03 06:23:00,45.0,42.0,30.28,SSW,205,1.0,7.0,89,0.00,,,0.00,Wunderground v.1.15,2013-02-03 14:23:00,
2013-02-03 06:28:00,45.0,42.2,30.28,SSW,202,1.0,7.0,90,0.00,,,0.00,Wunderground v.1.15,2013-02-03 14:28:00,
2013-02-03 06:34:00,44.9,42.1,30.28,ESE,112,2.0,7.0,90,0.00,,,0.00,Wunderground v.1.15,2013-02-03 14:34:00,
2013-02-03 06:39:00,44.9,42.1,30.27,ESE,116,3.0,7.0,90,0.00,,,0.00,Wunderground v.1.15,2013-02-03 14:39:00,
2013-02-03 06:44:00,45.0,42.2,30.27,ESE,111,2.0,7.0,90,0.00,,,0.00,Wunderground v.1.15,2013-02-03 14:44:00,
2013-02-03 06:50:00,44.9,41.9,30.27,ESE,112,1.0,7.0,89,0.00,,,0.00,Wunderground v.1.15,2013-02-03 14:50:00,
2013-02-03 06:55:00,44.9,41.9,30.27,SE,139,1.0,7.0,89,0.00,,,0.00,Wunderground v.1.15,2013-02-03 14:55:00,
2013-02-03 07:01:00,44.9,41.9,30.28,SE,139,1.0,7.0,89,0.00,,,0.00,Wunderground v.1.15,2013-02-03 15:01:00,
2013-02-03 07:07:00,44.9,41.9,30.28,SE,138,1.0,7.0,89,0.00,,,0.00,Wunderground v.1.15,2013-02-03 15:07:00,
2013-02-03 07:12:00,44.9,41.9,30.28,SE,138,1.0,7.0,89,0.00,,,0.00,Wunderground v.1.15,2013-02-03 15:12:00,
2013-02-03 07:17:00,44.9,41.9,30.28,SE,136,1.0,7.0,89,0.00,,,0.00,Wunderground v.1.15,2013-02-03 15:17:00,
2013-02-03 07:22:00,44.9,41.9,30.28,SE,137,1.0,7.0,89,0.00,,,0.00,Wunderground v.1.15,2013-02-03 15:22:00,
2013-02-03 07:28:00,44.9,41.9,30.28,SE,135,1.0,7.0,89,0.00,,,0.00,Wunderground v.1.15,2013-02-03 15:28:00,
2013-02-03 07:33:00,44.9,41.9,30.28,SE,134,1.0,7.0,89,0.00,,,0.00,Wunderground v.1.15,2013-02-03 15:33:00,
2013-02-03 07:39:00,44.9,41.9,30.28,SE,134,1.0,7.0,89,0.00,,,0.00,Wunderground v.1.15,2013-02-03 15:39:00,
2013-02-03 07:44:00,44.8,41.8,30.28,SE,134,1.0,7.0,89,0.00,,,0.00,Wunderground v.1.15,2013-02-03 15:44:00,
2013-02-03 07:49:00,44.8,41.8,30.28,ESE,104,1.0,7.0,89,0.00,,,0.00,Wunderground v.1.15,2013-02-03 15:49:00,
2013-02-03 07:55:00,44.9,41.9,30.28,ESE,103,2.0,7.0,89,0.00,,,0.00,Wunderground v.1.15,2013-02-03 15:55:00,
2013-02-03 08:00:00,44.9,41.9,30.28,East,101,2.0,2.0,89,0.00,,,0.00,Wunderground v.1.15,2013-02-03 16:00:00,
2013-02-03 08:06:00,44.9,41.9,30.28,ESE,104,2.0,7.0,89,0.00,,,0.00,Wunderground v.1.15,2013-02-03 16:06:00,
2013-02-03 08:11:00,44.9,41.9,30.28,ESE,105,1.0,7.0,89,0.00,,,0.00,Wunderground v.1.15,2013-02-03 16:11:00,
2013-02-03 08:17:00,45.0,42.0,30.28,ESE,117,2.0,7.0,89,0.00,,,0.00,Wunderground v.1.15,2013-02-03 16:17:00,
2013-02-03 08:23:00,45.0,42.0,30.28,ESE,120,1.0,7.0,89,0.00,,,0.00,Wunderground v.1.15,2013-02-03 16:23:00,
2013-02-03 08:29:00,45.2,42.2,30.28,ESE,121,2.0,7.0,89,0.00,,,0.00,Wunderground v.1.15,2013-02-03 16:29:00,
2013-02-03 08:35:00,45.2,42.2,30.28,ESE,121,1.0,7.0,89,0.00,,,0.00,Wunderground v.1.15,2013-02-03 16:35:00,
2013-02-03 08:41:00,45.3,42.2,30.28,SE,126,1.0,7.0,89,0.00,,,0.00,Wunderground v.1.15,2013-02-03 16:41:00,
2013-02-03 08:47:00,45.4,42.3,30.28,SE,126,1.0,7.0,89,0.00,,,0.00,Wunderground v.1.15,2013-02-03 16:47:00,
2013-02-03 08:53:00,45.6,42.3,30.29,SE,126,1.0,7.0,88,0.00,,,0.00,Wunderground v.1.15,2013-02-03 16:53:00,
2013-02-03 08:59:00,45.7,42.3,30.29,ESE,112,1.0,7.0,88,0.00,,,0.00,Wunderground v.1.15,2013-02-03 16:59:00,
2013-02-03 09:05:00,45.8,42.4,30.29,ESE,111,1.0,7.0,88,0.00,,,0.00,Wunderground v.1.15,2013-02-03 17:05:00,
2013-02-03 09:10:00,45.9,42.5,30.29,ESE,112,1.0,7.0,88,0.00,,,0.00,Wunderground v.1.15,2013-02-03 17:10:00,
2013-02-03 09:15:00,46.0,42.6,30.30,ESE,111,1.0,7.0,88,0.00,,,0.00,Wunderground v.1.15,2013-02-03 17:15:00,
2013-02-03 09:21:00,46.1,42.7,30.29,ESE,111,1.0,7.0,88,0.00,,,0.00,Wunderground v.1.15,2013-02-03 17:21:00,
2013-02-03 09:26:00,46.3,42.9,30.30,ESE,109,1.0,7.0,88,0.00,,,0.00,Wunderground v.1.15,2013-02-03 17:26:00,
2013-02-03 09:32:00,46.5,42.8,30.30,ESE,113,1.0,7.0,87,0.00,,,0.00,Wunderground v.1.15,2013-02-03 17:32:00,
2013-02-03 09:38:00,46.7,43.0,30.29,ESE,113,1.0,7.0,87,0.00,,,0.00,Wunderground v.1.15,2013-02-03 17:38:00,
2013-02-03 09:44:00,46.9,43.2,30.30,SE,136,2.0,7.0,87,0.00,,,0.00,Wunderground v.1.15,2013-02-03 17:44:00,
2013-02-03 09:49:00,47.1,43.4,30.30,SE,136,2.0,7.0,87,0.00,,,0.00,Wunderground v.1.15,2013-02-03 17:49:00,
2013-02-03 09:55:00,47.3,43.6,30.30,SE,133,1.0,7.0,87,0.00,,,0.00,Wunderground v.1.15,2013-02-03 17:55:00,
2013-02-03 10:00:00,47.5,43.5,30.30,SE,133,1.0,1.0,86,0.00,,,0.00,Wunderground v.1.15,2013-02-03 18:00:00,
2013-02-03 10:06:00,47.6,43.3,30.30,SE,131,1.0,7.0,85,0.00,,,0.00,Wunderground v.1.15,2013-02-03 18:06:00,
2013-02-03 10:12:00,47.6,43.3,30.30,SE,131,2.0,7.0,85,0.00,,,0.00,Wunderground v.1.15,2013-02-03 18:12:00,
2013-02-03 10:17:00,47.8,43.5,30.30,SE,131,1.0,7.0,85,0.00,,,0.00,Wunderground v.1.15,2013-02-03 18:17:00,
2013-02-03 10:23:00,48.1,43.8,30.31,SE,131,1.0,7.0,85,0.00,,,0.00,Wunderground v.1.15,2013-02-03 18:23:00,
2013-02-03 10:28:00,48.3,43.7,30.31,SE,131,0.0,7.0,84,0.00,,,0.00,Wunderground v.1.15,2013-02-03 18:28:00,
2013-02-03 10:33:00,48.5,43.9,30.31,SE,131,1.0,7.0,84,0.00,,,0.00,Wunderground v.1.15,2013-02-03 18:33:00,
2013-02-03 10:38:00,48.6,43.7,30.31,SE,131,1.0,7.0,83,0.00,,,0.00,Wunderground v.1.15,2013-02-03 18:38:00,
2013-02-03 10:44:00,48.4,43.5,30.31,SE,131,1.0,7.0,83,0.00,,,0.00,Wunderground v.1.15,2013-02-03 18:44:00,
2013-02-03 10:49:00,48.5,43.6,30.30,SE,131,2.0,7.0,83,0.00,,,0.00,Wunderground v.1.15,2013-02-03 18:49:00,
2013-02-03 10:54:00,48.4,43.2,30.31,SE,131,2.0,7.0,82,0.00,,,0.00,Wunderground v.1.15,2013-02-03 18:54:00,
2013-02-03 11:00:00,48.6,43.4,30.30,SE,131,1.0,7.0,82,0.00,,,0.00,Wunderground v.1.15,2013-02-03 19:00:00,
2013-02-03 11:05:00,48.7,43.5,30.30,SE,131,1.0,7.0,82,0.00,,,0.00,Wunderground v.1.15,2013-02-03 19:05:00,
2013-02-03 11:11:00,48.6,43.4,30.31,SE,131,2.0,7.0,82,0.00,,,0.00,Wunderground v.1.15,2013-02-03 19:11:00,
2013-02-03 11:17:00,48.5,42.9,30.31,SE,131,2.0,7.0,81,0.00,,,0.00,Wunderground v.1.15,2013-02-03 19:17:00,
2013-02-03 11:22:00,48.6,43.4,30.32,SE,131,2.0,7.0,82,0.00,,,0.00,Wunderground v.1.15,2013-02-03 19:22:00,
2013-02-03 11:27:00,48.7,43.5,30.31,SE,131,1.0,7.0,82,0.00,,,0.00,Wunderground v.1.15,2013-02-03 19:27:00,
2013-02-03 11:33:00,48.9,43.6,30.31,SE,131,1.0,7.0,82,0.00,,,0.00,Wunderground v.1.15,2013-02-03 19:33:00,
2013-02-03 11:38:00,48.8,42.9,30.31,SE,131,2.0,7.0,80,0.00,,,0.00,Wunderground v.1.15,2013-02-03 19:38:00,
2013-02-03 11:44:00,48.8,43.2,30.31,SE,131,2.0,7.0,81,0.00,,,0.00,Wunderground v.1.15,2013-02-03 19:44:00,
2013-02-03 11:50:00,49.0,43.4,30.30,SE,131,1.0,7.0,81,0.00,,,0.00,Wunderground v.1.15,2013-02-03 19:50:00,
2013-02-03 11:56:00,49.1,43.2,30.30,SE,131,1.0,7.0,80,0.00,,,0.00,Wunderground v.1.15,2013-02-03 19:56:00,
2013-02-03 12:02:00,49.1,43.2,30.30,SE,131,1.0,3.0,80,0.00,,,0.00,Wunderground v.1.15,2013-02-03 20:02:00,
2013-02-03 12:07:00,49.2,43.6,30.30,SE,131,1.0,7.0,81,0.00,,,0.00,Wunderground v.1.15,2013-02-03 20:07:00,
2013-02-03 12:13:00,49.2,43.9,30.29,SE,131,1.0,7.0,82,0.00,,,0.00,Wunderground v.1.15,2013-02-03 20:13:00,
2013-02-03 12:19:00,49.2,43.6,30.28,SE,131,1.0,7.0,81,0.00,,,0.00,Wunderground v.1.15,2013-02-03 20:19:00,
2013-02-03 12:25:00,49.3,43.4,30.29,SE,131,1.0,7.0,80,0.00,,,0.00,Wunderground v.1.15,2013-02-03 20:25:00,
2013-02-03 12:31:00,49.5,43.9,30.28,SE,131,1.0,7.0,81,0.00,,,0.00,Wunderground v.1.15,2013-02-03 20:31:00,
2013-02-03 12:37:00,49.4,43.8,30.28,SE,131,2.0,7.0,81,0.00,,,0.00,Wunderground v.1.15,2013-02-03 20:37:00,
2013-02-03 12:42:00,49.3,44.0,30.28,SE,131,2.0,7.0,82,0.00,,,0.00,Wunderground v.1.15,2013-02-03 20:42:00,
2013-02-03 12:48:00,49.2,43.9,30.28,SE,131,2.0,7.0,82,0.00,,,0.00,Wunderground v.1.15,2013-02-03 20:48:00,
2013-02-03 12:53:00,49.1,44.2,30.28,SE,131,2.0,7.0,83,0.00,,,0.00,Wunderground v.1.15,2013-02-03 20:53:00,
2013-02-03 12:58:00,49.0,44.4,30.28,SE,131,2.0,7.0,84,0.00,,,0.00,Wunderground v.1.15,2013-02-03 20:58:00,
2013-02-03 13:04:00,48.8,44.2,30.28,SE,131,2.0,7.0,84,0.00,,,0.00,Wunderground v.1.15,2013-02-03 21:04:00,
2013-02-03 13:10:00,48.8,44.2,30.27,SE,131,2.0,7.0,84,0.00,,,0.00,Wunderground v.1.15,2013-02-03 21:10:00,
2013-02-03 13:15:00,48.7,44.4,30.26,SE,131,1.0,7.0,85,0.00,,,0.00,Wunderground v.1.15,2013-02-03 21:15:00,
2013-02-03 13:20:00,48.5,43.9,30.26,SE,131,1.0,7.0,84,0.00,,,0.00,Wunderground v.1.15,2013-02-03 21:20:00,
2013-02-03 13:26:00,48.5,43.9,30.26,SE,131,1.0,7.0,84,0.00,,,0.00,Wunderground v.1.15,2013-02-03 21:26:00,
2013-02-03 13:32:00,48.6,43.7,30.26,SE,131,1.0,7.0,83,0.00,,,0.00,Wunderground v.1.15,2013-02-03 21:32:00,
2013-02-03 13:37:00,48.7,44.1,30.25,SE,131,2.0,7.0,84,0.00,,,0.00,Wunderground v.1.15,2013-02-03 21:37:00,
2013-02-03 13:42:00,48.7,43.8,30.25,SE,131,2.0,7.0,83,0.00,,,0.00,Wunderground v.1.15,2013-02-03 21:42:00,
2013-02-03 13:48:00,48.7,43.8,30.25,SE,131,2.0,7.0,83,0.00,,,0.00,Wunderground v.1.15,2013-02-03 21:48:00,
2013-02-03 13:53:00,48.8,44.2,30.25,SE,131,2.0,7.0,84,0.00,,,0.00,Wunderground v.1.15,2013-02-03 21:53:00,
2013-02-03 13:59:00,48.6,44.0,30.25,SE,131,3.0,7.0,84,0.00,,,0.00,Wunderground v.1.15,2013-02-03 21:59:00,
2013-02-03 14:04:00,48.6,44.0,30.25,SE,131,3.0,7.0,84,0.00,,,0.00,Wunderground v.1.15,2013-02-03 22:04:00,
2013-02-03 14:09:00,48.6,44.0,30.25,SE,131,2.0,7.0,84,0.00,,,0.00,Wunderground v.1.15,2013-02-03 22:09:00,
2013-02-03 14:15:00,48.6,44.0,30.25,SE,131,2.0,7.0,84,0.00,,,0.00,Wunderground v.1.15,2013-02-03 22:15:00,
2013-02-03 14:20:00,48.6,44.0,30.25,SE,131,3.0,3.0,84,0.00,,,0.00,Wunderground v.1.15,2013-02-03 22:20:00,
2013-02-03 14:26:00,48.7,43.8,30.24,SE,131,2.0,7.0,83,0.00,,,0.00,Wunderground v.1.15,2013-02-03 22:26:00,
2013-02-03 14:32:00,48.8,43.9,30.24,SE,131,2.0,7.0,83,0.00,,,0.00,Wunderground v.1.15,2013-02-03 22:32:00,
2013-02-03 14:37:00,48.9,43.6,30.24,SE,131,2.0,7.0,82,0.00,,,0.00,Wunderground v.1.15,2013-02-03 22:37:00,
2013-02-03 14:42:00,49.0,43.4,30.25,SE,131,2.0,7.0,81,0.00,,,0.00,Wunderground v.1.15,2013-02-03 22:42:00,
2013-02-03 14:48:00,49.0,43.4,30.24,SE,131,3.0,7.0,81,0.00,,,0.00,Wunderground v.1.15,2013-02-03 22:48:00,
2013-02-03 14:54:00,49.0,43.4,30.24,SE,131,2.0,7.0,81,0.00,,,0.00,Wunderground v.1.15,2013-02-03 22:54:00,
2013-02-03 15:00:00,49.0,43.7,30.24,SE,131,2.0,7.0,82,0.00,,,0.00,Wunderground v.1.15,2013-02-03 23:00:00,
2013-02-03 15:05:00,48.9,43.6,30.24,SE,131,2.0,7.0,82,0.00,,,0.00,Wunderground v.1.15,2013-02-03 23:05:00,
2013-02-03 15:11:00,48.8,43.5,30.24,SE,131,3.0,7.0,82,0.00,,,0.00,Wunderground v.1.15,2013-02-03 23:11:00,
2013-02-03 15:16:00,48.7,43.8,30.24,SE,131,3.0,7.0,83,0.00,,,0.00,Wunderground v.1.15,2013-02-03 23:16:00,
2013-02-03 15:22:00,48.5,43.6,30.24,SE,131,2.0,7.0,83,0.00,,,0.00,Wunderground v.1.15,2013-02-03 23:22:00,
2013-02-03 15:27:00,48.6,44.0,30.24,SE,131,2.0,7.0,84,0.00,,,0.00,Wunderground v.1.15,2013-02-03 23:27:00,
2013-02-03 15:32:00,48.7,44.4,30.24,SE,131,2.0,7.0,85,0.00,,,0.00,Wunderground v.1.15,2013-02-03 23:32:00,
2013-02-03 15:38:00,48.5,44.2,30.24,SE,131,2.0,7.0,85,0.00,,,0.00,Wunderground v.1.15,2013-02-03 23:38:00,
2013-02-03 15:43:00,48.4,44.1,30.24,SE,131,3.0,7.0,85,0.00,,,0.00,Wunderground v.1.15,2013-02-03 23:43:00,
2013-02-03 15:48:00,48.5,44.5,30.24,SE,131,4.0,7.0,86,0.00,,,0.00,Wunderground v.1.15,2013-02-03 23:48:00,
2013-02-03 15:54:00,48.2,44.5,30.25,NW,321,5.0,9.0,87,0.00,,,0.00,Wunderground v.1.15,2013-02-03 23:54:00,
2013-02-03 16:00:00,48.1,45.0,30.25,NW,323,5.0,7.0,89,0.00,,,0.00,Wunderground v.1.15,2013-02-04 00:00:00,
2013-02-03 16:06:00,47.8,44.7,30.24,NW,325,5.0,7.0,89,0.00,,,0.00,Wunderground v.1.15,2013-02-04 00:06:00,
2013-02-03 16:11:00,47.8,45.0,30.24,NW,325,5.0,7.0,90,0.00,,,0.00,Wunderground v.1.15,2013-02-04 00:11:00,
2013-02-03 16:17:00,47.6,44.5,30.24,NW,323,5.0,7.0,89,0.00,,,0.00,Wunderground v.1.15,2013-02-04 00:17:00,
2013-02-03 16:23:00,47.6,44.8,30.25,NW,324,5.0,7.0,90,0.00,,,0.00,Wunderground v.1.15,2013-02-04 00:23:00,
2013-02-03 16:29:00,47.6,44.8,30.25,NW,324,5.0,7.0,90,0.00,,,0.00,Wunderground v.1.15,2013-02-04 00:29:00,
2013-02-03 16:35:00,47.4,44.3,30.24,NW,323,5.0,7.0,89,0.00,,,0.00,Wunderground v.1.15,2013-02-04 00:35:00,
2013-02-03 16:41:00,47.5,44.7,30.25,NW,325,5.0,7.0,90,0.00,,,0.00,Wunderground v.1.15,2013-02-04 00:41:00,
2013-02-03 16:46:00,47.3,44.5,30.25,NW,325,6.0,7.0,90,0.00,,,0.00,Wunderground v.1.15,2013-02-04 00:46:00,
2013-02-03 16:52:00,47.3,44.5,30.25,NW,325,5.0,7.0,90,0.00,,,0.00,Wunderground v.1.15,2013-02-04 00:52:00,
2013-02-03 16:58:00,47.2,44.4,30.25,NW,325,5.0,7.0,90,0.00,,,0.00,Wunderground v.1.15,2013-02-04 00:58:00,
2013-02-03 17:03:00,47.3,44.5,30.25,NW,325,4.0,7.0,90,0.00,,,0.00,Wunderground v.1.15,2013-02-04 01:03:00,
2013-02-03 17:09:00,47.1,44.0,30.24,NW,325,3.0,7.0,89,0.00,,,0.00,Wunderground v.1.15,2013-02-04 01:09:00,
2013-02-03 17:15:00,47.1,44.0,30.24,NW,325,2.0,7.0,89,0.00,,,0.00,Wunderground v.1.15,2013-02-04 01:15:00,
2013-02-03 17:20:00,47.2,44.1,30.25,NW,325,2.0,7.0,89,0.00,,,0.00,Wunderground v.1.15,2013-02-04 01:20:00,
2013-02-03 17:26:00,47.1,44.0,30.24,NW,325,3.0,7.0,89,0.00,,,0.00,Wunderground v.1.15,2013-02-04 01:26:00,
2013-02-03 17:31:00,47.0,43.6,30.24,NW,325,3.0,7.0,88,0.00,,,0.00,Wunderground v.1.15,2013-02-04 01:31:00,
2013-02-03 17:37:00,47.2,44.1,30.25,NW,325,3.0,7.0,89,0.00,,,0.00,Wunderground v.1.15,2013-02-04 01:37:00,
2013-02-03 17:43:00,47.2,44.1,30.25,NW,325,3.0,7.0,89,0.00,,,0.00,Wunderground v.1.15,2013-02-04 01:43:00,
2013-02-03 17:48:00,47.1,44.0,30.25,NW,325,3.0,7.0,89,0.00,,,0.00,Wunderground v.1.15,2013-02-04 01:48:00,
2013-02-03 17:54:00,47.2,44.4,30.25,NW,325,3.0,7.0,90,0.00,,,0.00,Wunderground v.1.15,2013-02-04 01:54:00,
2013-02-03 17:59:00,47.1,44.3,30.25,NW,325,3.0,7.0,90,0.00,,,0.00,Wunderground v.1.15,2013-02-04 01:59:00,
2013-02-03 18:05:00,47.0,44.2,30.25,NW,325,2.0,7.0,90,0.00,,,0.00,Wunderground v.1.15,2013-02-04 02:05:00,
2013-02-03 18:10:00,47.0,44.2,30.25,NW,325,2.0,2.0,90,0.00,,,0.00,Wunderground v.1.15,2013-02-04 02:10:00,
2013-02-03 18:16:00,47.0,44.2,30.25,NW,325,2.0,7.0,90,0.00,,,0.00,Wunderground v.1.15,2013-02-04 02:16:00,
2013-02-03 18:22:00,47.0,44.5,30.25,NW,325,2.0,7.0,91,0.00,,,0.00,Wunderground v.1.15,2013-02-04 02:22:00,
2013-02-03 18:28:00,46.9,44.4,30.25,NW,325,2.0,7.0,91,0.00,,,0.00,Wunderground v.1.15,2013-02-04 02:28:00,
2013-02-03 18:34:00,46.8,44.0,30.25,NW,325,2.0,7.0,90,0.00,,,0.00,Wunderground v.1.15,2013-02-04 02:34:00,
2013-02-03 18:40:00,46.9,44.1,30.25,NW,325,3.0,7.0,90,0.00,,,0.00,Wunderground v.1.15,2013-02-04 02:40:00,
2013-02-03 18:45:00,46.9,44.1,30.25,NW,325,2.0,7.0,90,0.00,,,0.00,Wunderground v.1.15,2013-02-04 02:45:00,
2013-02-03 18:50:00,46.9,44.1,30.25,NW,325,2.0,2.0,90,0.00,,,0.00,Wunderground v.1.15,2013-02-04 02:50:00,
2013-02-03 18:56:00,46.9,44.1,30.25,NW,325,3.0,7.0,90,0.00,,,0.00,Wunderground v.1.15,2013-02-04 02:56:00,
2013-02-03 19:01:00,46.9,44.1,30.25,NW,325,3.0,7.0,90,0.00,,,0.00,Wunderground v.1.15,2013-02-04 03:01:00,
2013-02-03 19:07:00,47.0,44.2,30.25,NW,325,3.0,7.0,90,0.00,,,0.00,Wunderground v.1.15,2013-02-04 03:07:00,
2013-02-03 19:13:00,47.0,44.2,30.25,NW,325,3.0,7.0,90,0.00,,,0.00,Wunderground v.1.15,2013-02-04 03:13:00,
2013-02-03 19:18:00,47.0,44.2,30.25,NW,325,2.0,7.0,90,0.00,,,0.00,Wunderground v.1.15,2013-02-04 03:18:00,
2013-02-03 19:23:00,46.8,44.0,30.25,NW,325,1.0,7.0,90,0.00,,,0.00,Wunderground v.1.15,2013-02-04 03:23:00,
2013-02-03 19:29:00,46.6,43.8,30.24,NW,325,1.0,7.0,90,0.00,,,0.00,Wunderground v.1.15,2013-02-04 03:29:00,
2013-02-03 19:35:00,46.5,43.7,30.24,NW,325,1.0,7.0,90,0.00,,,0.00,Wunderground v.1.15,2013-02-04 03:35:00,
2013-02-03 19:40:00,46.4,43.9,30.25,NW,325,0.0,7.0,91,0.00,,,0.00,Wunderground v.1.15,2013-02-04 03:40:00,
2013-02-03 19:45:00,46.4,43.9,30.24,NW,325,0.0,7.0,91,0.00,,,0.00,Wunderground v.1.15,2013-02-04 03:45:00,
2013-02-03 19:51:00,46.4,43.9,30.24,NW,325,1.0,7.0,91,0.00,,,0.00,Wunderground v.1.15,2013-02-04 03:51:00,
2013-02-03 19:56:00,46.3,43.8,30.24,NW,325,1.0,7.0,91,0.00,,,0.00,Wunderground v.1.15,2013-02-04 03:56:00,
2013-02-03 20:02:00,46.3,43.8,30.24,NW,325,1.0,7.0,91,0.00,,,0.00,Wunderground v.1.15,2013-02-04 04:02:00,
2013-02-03 20:08:00,46.2,43.7,30.24,NW,325,0.0,7.0,91,0.00,,,0.00,Wunderground v.1.15,2013-02-04 04:08:00,
2013-02-03 20:13:00,46.1,43.6,30.24,NW,325,1.0,7.0,91,0.00,,,0.00,Wunderground v.1.15,2013-02-04 04:13:00,
2013-02-03 20:19:00,46.1,43.6,30.24,NW,325,1.0,7.0,91,0.00,,,0.00,Wunderground v.1.15,2013-02-04 04:19:00,
2013-02-03 20:25:00,46.0,43.5,30.24,NW,325,1.0,7.0,91,0.00,,,0.00,Wunderground v.1.15,2013-02-04 04:25:00,
2013-02-03 20:31:00,45.9,43.7,30.24,NW,325,0.0,7.0,92,0.00,,,0.00,Wunderground v.1.15,2013-02-04 04:31:00,
2013-02-03 20:36:00,45.9,43.7,30.24,NW,325,0.0,7.0,92,0.00,,,0.00,Wunderground v.1.15,2013-02-04 04:36:00,
2013-02-03 20:41:00,45.8,43.6,30.24,NW,325,0.0,7.0,92,0.00,,,0.00,Wunderground v.1.15,2013-02-04 04:41:00,
2013-02-03 20:47:00,45.8,43.6,30.23,NW,325,0.0,7.0,92,0.00,,,0.00,Wunderground v.1.15,2013-02-04 04:47:00,
2013-02-03 20:53:00,45.8,43.6,30.23,NW,325,0.0,7.0,92,0.00,,,0.00,Wunderground v.1.15,2013-02-04 04:53:00,
2013-02-03 20:58:00,45.7,43.2,30.23,NW,325,0.0,7.0,91,0.00,,,0.00,Wunderground v.1.15,2013-02-04 04:58:00,
2013-02-03 21:03:00,45.6,43.4,30.23,NW,325,0.0,7.0,92,0.00,,,0.00,Wunderground v.1.15,2013-02-04 05:03:00,
2013-02-03 21:04:00,45.6,43.4,30.23,NW,325,0.0,7.0,92,0.00,,,0.00,Wunderground v.1.15,2013-02-04 05:04:00,
2013-02-03 21:09:00,45.6,43.4,30.24,NW,325,0.0,7.0,92,0.00,,,0.00,Wunderground v.1.15,2013-02-04 05:09:00,
2013-02-03 21:11:00,45.6,43.4,30.24,NW,325,0.0,7.0,92,0.00,,,0.00,Wunderground v.1.15,2013-02-04 05:11:00,
2013-02-03 21:17:00,45.6,43.4,30.23,NW,325,0.0,7.0,92,0.00,,,0.00,Wunderground v.1.15,2013-02-04 05:17:00,
2013-02-03 21:22:00,45.6,43.4,30.23,NW,325,0.0,7.0,92,0.00,,,0.00,Wunderground v.1.15,2013-02-04 05:22:00,
2013-02-03 21:28:00,45.3,43.1,30.22,NW,325,0.0,7.0,92,0.00,,,0.00,Wunderground v.1.15,2013-02-04 05:28:00,
2013-02-03 21:34:00,45.0,42.8,30.23,NW,325,0.0,7.0,92,0.00,,,0.00,Wunderground v.1.15,2013-02-04 05:34:00,
2013-02-03 21:40:00,44.9,42.7,30.23,NW,325,0.0,7.0,92,0.00,,,0.00,Wunderground v.1.15,2013-02-04 05:40:00,
2013-02-03 21:46:00,44.8,42.6,30.23,NW,325,0.0,7.0,92,0.00,,,0.00,Wunderground v.1.15,2013-02-04 05:46:00,
2013-02-03 21:51:00,44.8,42.9,30.23,NW,325,0.0,7.0,93,0.00,,,0.00,Wunderground v.1.15,2013-02-04 05:51:00,
2013-02-03 21:57:00,44.9,43.0,30.23,NW,325,0.0,7.0,93,0.00,,,0.00,Wunderground v.1.15,2013-02-04 05:57:00,
2013-02-03 22:03:00,44.7,42.5,30.23,NW,325,0.0,7.0,92,0.00,,,0.00,Wunderground v.1.15,2013-02-04 06:03:00,
2013-02-03 22:09:00,44.7,42.8,30.23,NW,325,0.0,7.0,93,0.00,,,0.00,Wunderground v.1.15,2013-02-04 06:09:00,
2013-02-03 22:15:00,44.7,42.8,30.23,NW,325,0.0,7.0,93,0.00,,,0.00,Wunderground v.1.15,2013-02-04 06:15:00,
2013-02-03 22:21:00,44.7,42.8,30.23,NW,325,0.0,7.0,93,0.00,,,0.00,Wunderground v.1.15,2013-02-04 06:21:00,
2013-02-03 22:27:00,44.5,42.6,30.23,NW,325,0.0,7.0,93,0.00,,,0.00,Wunderground v.1.15,2013-02-04 06:27:00,
2013-02-03 22:33:00,44.2,42.3,30.22,NW,325,0.0,7.0,93,0.00,,,0.00,Wunderground v.1.15,2013-02-04 06:33:00,
2013-02-03 22:39:00,44.0,42.1,30.22,NW,325,0.0,7.0,93,0.00,,,0.00,Wunderground v.1.15,2013-02-04 06:39:00,
2013-02-03 22:45:00,43.7,41.8,30.22,NW,325,0.0,7.0,93,0.00,,,0.00,Wunderground v.1.15,2013-02-04 06:45:00,
2013-02-03 22:50:00,43.6,42.0,30.22,NW,325,0.0,7.0,94,0.00,,,0.00,Wunderground v.1.15,2013-02-04 06:50:00,
2013-02-03 22:56:00,43.5,41.9,30.22,NW,325,0.0,7.0,94,0.00,,,0.00,Wunderground v.1.15,2013-02-04 06:56:00,
2013-02-03 23:02:00,43.3,41.7,30.22,NW,325,0.0,7.0,94,0.00,,,0.00,Wunderground v.1.15,2013-02-04 07:02:00,
2013-02-03 23:07:00,43.1,41.5,30.22,NW,325,0.0,7.0,94,0.00,,,0.00,Wunderground v.1.15,2013-02-04 07:07:00,
2013-02-03 23:12:00,42.9,41.3,30.22,NW,325,0.0,7.0,94,0.00,,,0.00,Wunderground v.1.15,2013-02-04 07:12:00,
2013-02-03 23:18:00,42.5,40.9,30.21,NW,325,0.0,7.0,94,0.00,,,0.00,Wunderground v.1.15,2013-02-04 07:18:00,
2013-02-03 23:24:00,42.1,40.5,30.21,NW,325,0.0,7.0,94,0.00,,,0.00,Wunderground v.1.15,2013-02-04 07:24:00,
2013-02-03 23:29:00,41.8,40.2,30.22,NW,325,0.0,7.0,94,0.00,,,0.00,Wunderground v.1.15,2013-02-04 07:29:00,
2013-02-03 23:35:00,41.8,40.2,30.22,NW,325,0.0,7.0,94,0.00,,,0.00,Wunderground v.1.15,2013-02-04 07:35:00,
2013-02-03 23:40:00,41.7,40.1,30.22,NW,325,0.0,7.0,94,0.00,,,0.00,Wunderground v.1.15,2013-02-04 07:40:00,
2013-02-03 23:45:00,42.1,40.8,30.22,NW,325,0.0,7.0,95,0.00,,,0.00,Wunderground v.1.15,2013-02-04 07:45:00,
2013-02-03 23:51:00,42.1,40.8,30.22,NW,325,0.0,7.0,95,0.00,,,0.00,Wunderground v.1.15,2013-02-04 07:51:00,
2013-02-03 23:57:00,42.2,40.9,30.22,NW,325,0.0,7.0,95,0.00,,,0.00,Wunderground v.1.15,2013-02-04 07:57:00,